User: anonymous   Login
Location: La Pernelle
(49.6188°N, 1.2999°W)
Time: 20:42:02
(UTC+00:00)
Language:

SL-23 DEB - Orbit

View from above orbital plane
View from above orbital plane
View from above satellite
View from above satellite

Ground track
Ground track

The orbit data is extracted from the following two-line orbital elements,

1 37756U 11037B   21270.31037069  .00000971  00000-0  22455-3 0  9999
2 37756  51.4503 243.5223 1903690 244.9758  94.1959 11.27152879419280
Epoch (UTC): 27 September 2021 07:26:56
Eccentricity: 0.1903690
inclination: 51.4503°
perigee height: 425 km
apogee height: 3624 km
right ascension of ascending node: 243.5223°
argument of perigee: 244.9758°
revolutions per day: 11.27152879
mean anomaly at epoch: 94.1959°
orbit number at epoch: 41928

The dashed part of the orbit path shows where the satellite is in the earth's shadow,  

DLR